Flag for China Weather past 2 weeks in Tianjin, Tianjin Municipality, China

Now
52 °F

Clear.


Feels Like: 51 °F
Forecast: 46 / 73 °F
Wind: 3 mph from West

Location: Tianjin / Zhangguizhu

Current Time: Apr 19, 2015 at 10:54:56 PM

Latest Report: Apr 19, 2015 at 10:30 PM


Visibility: 10 mi

Pressure: 30.04 "Hg

Humidity: 44%

Dew point: 30 °F

Location of TianjinLocation

Historic Weather in Tianjin — Graph

°F

Tianjin temperature yesterday

Maximum temperature yesterday: 72 °F (at 10:00 AM)
Minimum temperature yesterday: 55 °F (at 6:00 AM)
Average temperature yesterday: 61 °F

Past Weeks' High & Low Weather Summary

 TemperatureHumidityPressure
High81 °F (Apr 15, 3:00 PM)94% (Apr 12, 12:30 AM)30.57 "Hg (Apr 12, 12:30 AM)
Low34 °F (Apr 7, 4:00 AM)9% (Apr 16, 2:00 PM)29.33 "Hg (Apr 15, 4:00 PM)
Average55 °F51%30.05 "Hg
* Reported Apr 4 9:00 PM — Apr 19 9:30 PM, Tianjin, Weather by CustomWeather, © 2015

Note: Actual official high and low records may vary slightly from our data, if they occured in-between our weather recording intervals... More about our weather records

Advertising

Tianjin weather history for previous 24 hours

 ConditionsComfort  
Time TempWeatherWind HumidityBarometerVisibility
9:30 PM
Sun, Apr 19
54 °FClear.3 mph41%30.04 "Hg10 mi
9:00 PM54 °FPassing clouds.3 mph41%30.04 "HgN/A
8:30 PM54 °FPassing clouds.6 mph38%30.04 "HgN/A
8:00 PM54 °FPassing clouds.6 mph47%30.01 "HgN/A
7:30 PM54 °FClear.8 mph51%29.98 "Hg10 mi
7:00 PM55 °FPassing clouds.6 mph51%29.98 "HgN/A
6:30 PM55 °FSunny.8 mph51%29.98 "Hg10 mi
6:00 PM57 °FSunny.8 mph48%29.98 "Hg10 mi
5:30 PM57 °FSunny.8 mph51%29.98 "Hg10 mi
5:00 PM59 °FPassing clouds.8 mph48%29.95 "HgN/A
4:30 PM59 °FPassing clouds.8 mph48%29.95 "HgN/A
4:00 PM59 °FPassing clouds.8 mph51%29.95 "HgN/A
3:30 PM61 °FPassing clouds.3 mph45%29.95 "HgN/A
3:00 PM61 °FPassing clouds.3 mph45%29.98 "HgN/A
2:30 PM61 °FSunny.6 mph48%29.98 "Hg10 mi
2:00 PM61 °FSunny.3 mph48%29.98 "Hg10 mi
1:30 PM59 °FSunny.3 mph48%29.98 "Hg10 mi
1:00 PM59 °FSunny.6 mph48%29.98 "Hg10 mi
12:30 PM59 °FPassing clouds.6 mph48%30.01 "HgN/A
12:00 PM59 °FSunny.8 mph51%30.01 "Hg10 mi
11:30 AM57 °FSunny.10 mph55%30.01 "Hg10 mi
11:00 AM57 °FSunny.13 mph55%30.01 "Hg10 mi
10:30 AM57 °FClear.13 mph55%30.01 "Hg5 mi
10:00 AM59 °FClear.13 mph59%30.01 "Hg4 mi
9:30 AM57 °FHaze.3 mph72%29.98 "Hg3 mi
9:00 AM55 °FHaze.3 mph77%29.98 "Hg3 mi
8:30 AM55 °FHaze.3 mph77%29.95 "Hg3 mi
8:00 AM55 °FHaze.10 mph77%29.95 "Hg2 mi
7:30 AM55 °FLight rain. Haze.6 mph77%29.95 "Hg3 mi
7:00 AM55 °FLight rain. Haze.1 mph72%29.92 "Hg3 mi
6:30 AM55 °FFog.No wind77%29.92 "Hg3 mi
6:00 AM54 °FFog.1 mph82%29.92 "Hg3 mi
5:30 AM54 °FFog.1 mph82%29.89 "Hg3 mi
5:00 AM54 °FFog.1 mph82%29.89 "Hg3 mi
4:30 AM54 °FLight rain. Fog.1 mph82%29.89 "Hg3 mi
4:00 AM54 °FLight rain. Fog.1 mph77%29.89 "Hg3 mi
3:30 AM55 °FLight rain. Haze.3 mph72%29.89 "Hg3 mi
3:00 AM55 °FClear.3 mph67%29.92 "Hg4 mi
2:30 AM55 °FClear.3 mph67%29.89 "Hg4 mi
2:00 AM55 °FClear.3 mph67%29.89 "Hg4 mi
1:30 AM55 °FLight rain. Clear.3 mph63%29.89 "Hg4 mi
1:00 AM57 °FClear.6 mph59%29.89 "Hg4 mi
12:30 AM57 °FClear.3 mph63%29.92 "Hg4 mi
12:00 AM57 °FClear.6 mph67%29.89 "Hg4 mi
11:30 PM
Sat, Apr 18
57 °FLight rain. Clear.6 mph67%29.89 "Hg4 mi
11:00 PM57 °FLight rain. Clear.3 mph63%29.89 "Hg5 mi
10:30 PM57 °FClear.8 mph63%29.89 "Hg5 mi
10:00 PM57 °FClear.8 mph59%29.89 "Hg10 mi
Weather by CustomWeather, © 2015

See weather overviewHow to use our weather pages